SL-16 DEB

Satellite information

Favourite Embed

Satellite Type and Status

DEBRISIN ORBIT

Key statistics

Satellite SL-16 DEB at a glance.

Uptime

12049

Days in orbit

Revolutions

≈ 15.7

Per day

Orbit

LEO

Low Earth Orbit

Inclination

70.8

Latest

Satellite identification and parameters

Extended collection of information and parameters for SL-16 DEB.

Object identification

Identified? True

Debris? True

Object name: SL-16 DEB

International designator: 1992-093AW

Object number (NORAD): 22357

Object ID (CCSDS): 22357

Country: COMMONWEALTH OF INDEPENDENT STATES (CIS)

Current information (Y/N): Y

RCS size: SMALL

Orbital parameters

Period: 91.779 minutes

Inclination: 70.8321 deg

SMA: 6739.952 km

Apoapsis: 369.561 km

Periapsis: 354.073 km

RAAN: 312.5671 deg

Eccentricy: 0.00114895

Argument of periapsis: 172.5555 deg

Mean anomaly: 187.582 deg

Mean motion: 15.68980562 rev/day

Mean motion (dot): 0.00278593 rev/day2

B* drag term: 0.0023263417 1/REarth

Two-line elements (TLE)

Creation date: Dec. 20, 2025, 5:42 p.m.

Reference frame: TEME

Reference center: EARTH

Epoch: Dec. 20, 2025, 6:06 a.m. UTC

TLE line 0: 0 SL-16 DEB

TLE line 1: 1 22357U 92093AW 25354.25438644 .00278593 00000-0 23263-2 0 9999

TLE line 2: 2 22357 70.8321 312.5671 0011489 172.5555 187.5820 15.68980562743465

Live tracking on map

Real-time ground track for satellite SL-16 DEB.

In-orbit conjunctions

A list of the most updated potential collisions computed for object SL-16 DEB.

Target Orbit TCA Probability of collision Miss distance Type
PRETTY SSO 2024-10-28 17:37:47 0.0001057018 362.0 (m) PAYLOAD
OBJECT J SSO 2024-07-26 23:41:32 0.0002770756 443.0 (m) UNKNOWN

Associated space launch

Second generation ELING satellite

SL-16 DEB was lifted into orbit during the mission ‘Zenit-2 | Tselina-2 12’, on board a Zenit-2 space rocket.

The launch took place on Dec. 25, 1992, 5:56 a.m. from 45/1.

For more information about the launch, click the button.

Launch to space Zenit-2 | Tselina-2 12
Zenit-2 | Tselina-2 12

Agency: N/A

Status: Launch Successful

Launch date: Dec. 25, 1992, 5:56 a.m. UTC

Rocket: Zenit-2

Launch pad: 45/1

Location: Baikonur Cosmodrome, Republic of Kazakhstan

...

Latest news about this satellite

There are no fresh news available about this satellite. Check back as we update our databases every day.


Newsletter sign-up

Weekly statistics, charts and insights to help you stay on top of the space industry.